| time (UTC) | temp F | wind direction | speed MPH | gust MPH | rain 1hr in | rain 24hr in | rain mn in | humidity % | barometer mb |
| 20260510213002 | 67 | 211 | 2.0 | 5.0 | 0.00 | 0.00 | 0.00 | 71 | 1014.5 |
| 20260510212502 | 66 | 231 | 2.0 | 5.0 | 0.00 | 0.00 | 0.00 | 71 | 1014.5 |
| 20260510212023 | 66 | 237 | 2.0 | 6.0 | 0.00 | 0.00 | 0.00 | 71 | 1014.5 |
| 20260510211502 | 66 | 214 | 2.0 | 6.0 | 0.00 | 0.00 | 0.00 | 71 | 1014.5 |
| 20260510211002 | 66 | 218 | 2.0 | 6.0 | 0.00 | 0.00 | 0.00 | 72 | 1014.5 |
| 20260510210502 | 65 | 232 | 2.0 | 6.0 | 0.00 | 0.00 | 0.00 | 72 | 1014.5 |
| 20260510210023 | 65 | 215 | 3.0 | 6.0 | 0.00 | 0.00 | 0.00 | 73 | 1014.5 |
| 20260510205502 | 65 | 211 | 3.0 | 6.0 | 0.00 | 0.00 | 0.00 | 73 | 1014.5 |
| 20260510205023 | 65 | 234 | 2.0 | 7.0 | 0.00 | 0.00 | 0.00 | 72 | 1014.5 |
| 20260510204502 | 65 | 231 | 2.0 | 7.0 | 0.00 | 0.00 | 0.00 | 72 | 1014.5 |
| 20260510204002 | 66 | 227 | 2.0 | 5.0 | 0.00 | 0.00 | 0.00 | 72 | 1014.5 |
| 20260510203502 | 66 | 239 | 2.0 | 7.0 | 0.00 | 0.00 | 0.00 | 72 | 1014.5 |
| 20260510203002 | 66 | 268 | 1.0 | 7.0 | 0.00 | 0.00 | 0.00 | 73 | 1014.5 |
| 20260510202502 | 65 | 275 | 1.0 | 3.0 | 0.00 | 0.00 | 0.00 | 75 | 1014.5 |
| 20260510202023 | 65 | 248 | 1.0 | 5.0 | 0.00 | 0.00 | 0.00 | 75 | 1014.5 |
| 20260510201502 | 65 | 283 | 1.0 | 5.0 | 0.00 | 0.00 | 0.00 | 74 | 1014.5 |
| 20260510201002 | 64 | 218 | 1.0 | 5.0 | 0.00 | 0.00 | 0.00 | 78 | 1014.5 |
| 20260510200523 | 64 | 207 | 1.0 | 5.0 | 0.00 | 0.00 | 0.00 | 77 | 1014.5 |
| 20260510200002 | 63 | 206 | 1.0 | 5.0 | 0.00 | 0.00 | 0.00 | 77 | 1014.5 |
| 20260510195502 | 63 | 211 | 1.0 | 5.0 | 0.00 | 0.00 | 0.00 | 77 | 1014.5 |
| 20260510195024 | 63 | 225 | 0.0 | 3.0 | 0.00 | 0.00 | 0.00 | 78 | 1014.5 |
| 20260510194502 | 63 | 223 | 1.0 | 5.0 | 0.00 | 0.00 | 0.00 | 79 | 1014.5 |
| 20260510194003 | 62 | 227 | 1.0 | 5.0 | 0.00 | 0.00 | 0.00 | 81 | 1014.5 |
| 20260510193502 | 62 | 265 | 1.0 | 3.0 | 0.00 | 0.00 | 0.00 | 83 | 1014.5 |
| 20260510193023 | 61 | 242 | 1.0 | 5.0 | 0.00 | 0.00 | 0.00 | 84 | 1014.5 |
| 20260510192502 | 60 | 250 | 1.0 | 5.0 | 0.00 | 0.00 | 0.00 | 85 | 1014.5 |
| 20260510192002 | 60 | 267 | 0.0 | 3.0 | 0.00 | 0.00 | 0.00 | 88 | 1014.5 |
| 20260510191523 | 60 | 292 | 0.0 | 3.0 | 0.00 | 0.00 | 0.00 | 89 | 1014.5 |
| 20260510191002 | 59 | 254 | 0.0 | 3.0 | 0.00 | 0.00 | 0.00 | 91 | 1014.5 |
| 20260510190502 | 58 | 233 | 0.0 | 4.0 | 0.00 | 0.00 | 0.00 | 92 | 1014.5 |
| 20260510190023 | 58 | 243 | 1.0 | 5.0 | 0.00 | 0.00 | 0.00 | 93 | 1014.5 |
| 20260510185502 | 57 | 261 | 1.0 | 5.0 | 0.00 | 0.00 | 0.00 | 93 | 1014.5 |
| 20260510185002 | 57 | 270 | 1.0 | 3.0 | 0.00 | 0.00 | 0.00 | 94 | 1014.5 |
| 20260510184503 | 56 | 268 | 1.0 | 3.0 | 0.00 | 0.00 | 0.00 | 95 | 1014.5 |
| 20260510184002 | 56 | 265 | 0.0 | 4.0 | 0.00 | 0.00 | 0.00 | 95 | 1014.5 |
| 20260510183502 | 55 | 311 | 1.0 | 4.0 | 0.00 | 0.00 | 0.00 | 95 | 1014.5 |
| 20260510183002 | 55 | 324 | 1.0 | 4.0 | 0.00 | 0.00 | 0.00 | 95 | 1014.5 |
| 20260510182502 | 55 | 290 | 1.0 | 3.0 | 0.00 | 0.00 | 0.00 | 96 | 1014.5 |
| 20260510182002 | 55 | 230 | 1.0 | 4.0 | 0.00 | 0.00 | 0.00 | 96 | 1014.5 |
| 20260510181502 | 54 | 222 | 1.0 | 4.0 | 0.00 | 0.00 | 0.00 | 96 | 1014.5 |
| 20260510181002 | 54 | 230 | 1.0 | 4.0 | 0.00 | 0.00 | 0.00 | 96 | 1014.5 |
| 20260510180502 | 54 | 239 | 1.0 | 4.0 | 0.00 | 0.00 | 0.00 | 96 | 1014.5 |
| 20260510180002 | 54 | 242 | 1.0 | 5.0 | 0.00 | 0.00 | 0.00 | 96 | 1014.5 |
| 20260510175502 | 54 | 257 | 1.0 | 5.0 | 0.00 | 0.00 | 0.00 | 96 | 1014.5 |
| 20260510175002 | 54 | 299 | 0.0 | 3.0 | 0.00 | 0.00 | 0.00 | 96 | 1014.5 |
| 20260510174502 | 53 | 299 | 0.0 | 3.0 | 0.00 | 0.00 | 0.00 | 96 | 1014.5 |
| 20260510174002 | 53 | 305 | 1.0 | 3.0 | 0.00 | 0.00 | 0.00 | 96 | 1014.5 |
| 20260510173502 | 53 | 312 | 1.0 | 4.0 | 0.00 | 0.00 | 0.00 | 96 | 1014.5 |
| 20260510173002 | 53 | 261 | 1.0 | 4.0 | 0.00 | 0.00 | 0.00 | 96 | 1014.5 |
| 20260510172502 | 53 | 261 | 1.0 | 4.0 | 0.00 | 0.00 | 0.00 | 96 | 1014.5 |
| 20260510172023 | 53 | 293 | 0.0 | 3.0 | 0.00 | 0.00 | 0.00 | 96 | 1014.5 |
| 20260510171502 | 52 | 246 | 1.0 | 5.0 | 0.00 | 0.00 | 0.00 | 96 | 1014.5 |
| 20260510171002 | 52 | 265 | 1.0 | 5.0 | 0.00 | 0.00 | 0.00 | 96 | 1014.5 |
| 20260510170502 | 52 | 264 | 1.0 | 4.0 | 0.00 | 0.00 | 0.00 | 96 | 1014.5 |
| 20260510170023 | 52 | 253 | 1.0 | 3.0 | 0.00 | 0.00 | 0.00 | 96 | 1014.5 |
| 20260510165502 | 52 | 275 | 1.0 | 4.0 | 0.00 | 0.00 | 0.00 | 96 | 1014.5 |
| 20260510165002 | 52 | 213 | 1.0 | 4.0 | 0.00 | 0.00 | 0.00 | 96 | 1014.5 |
| 20260510164502 | 52 | 208 | 1.0 | 4.0 | 0.00 | 0.00 | 0.00 | 96 | 1014.5 |
| 20260510164002 | 52 | 242 | 0.0 | 3.0 | 0.00 | 0.00 | 0.00 | 96 | 1014.5 |
| 20260510163502 | 52 | 226 | 1.0 | 3.0 | 0.00 | 0.00 | 0.00 | 96 | 1014.5 |
| 20260510163002 | 52 | 222 | 1.0 | 6.0 | 0.00 | 0.00 | 0.00 | 96 | 1014.5 |
| 20260510162502 | 52 | 227 | 1.0 | 6.0 | 0.00 | 0.00 | 0.00 | 96 | 1014.5 |
| 20260510162002 | 52 | 241 | 1.0 | 4.0 | 0.00 | 0.00 | 0.00 | 96 | 1014.5 |
| 20260510161502 | 52 | 235 | 1.0 | 4.0 | 0.00 | 0.00 | 0.00 | 96 | 1014.5 |
| 20260510161002 | 52 | 234 | 1.0 | 4.0 | 0.00 | 0.00 | 0.00 | 96 | 1014.5 |
| 20260510160502 | 52 | 246 | 0.0 | 3.0 | 0.00 | 0.00 | 0.00 | 96 | 1014.5 |
| 20260510160003 | 52 | 246 | 0.0 | 5.0 | 0.00 | 0.00 | 0.00 | 96 | 1014.5 |
| 20260510155502 | 52 | 241 | 1.0 | 5.0 | 0.00 | 0.00 | 0.00 | 96 | 1014.5 |
| 20260510155002 | 51 | 241 | 1.0 | 3.0 | 0.00 | 0.00 | 0.00 | 96 | 1014.5 |
| 20260510154502 | 51 | 247 | 1.0 | 3.0 | 0.00 | 0.00 | 0.00 | 96 | 1014.5 |
| 20260510154023 | 51 | 261 | 0.0 | 3.0 | 0.00 | 0.00 | 0.00 | 96 | 1014.5 |
| 20260510153502 | 51 | 253 | 0.0 | 4.0 | 0.00 | 0.00 | 0.00 | 96 | 1014.5 |
| 20260510153002 | 51 | 237 | 0.0 | 4.0 | 0.00 | 0.00 | 0.00 | 96 | 1014.5 |
| 20260510152523 | 51 | 259 | 0.0 | 3.0 | 0.00 | 0.00 | 0.00 | 96 | 1014.5 |
| 20260510152002 | 51 | 268 | 0.0 | 3.0 | 0.00 | 0.00 | 0.00 | 96 | 1014.5 |
| 20260510151502 | 51 | 244 | 1.0 | 7.0 | 0.00 | 0.00 | 0.00 | 96 | 1014.5 |
| 20260510151002 | 51 | 235 | 1.0 | 7.0 | 0.00 | 0.00 | 0.00 | 96 | 1014.5 |
| 20260510150502 | 51 | 237 | 1.0 | 4.0 | 0.00 | 0.00 | 0.00 | 96 | 1014.5 |
| 20260510150002 | 51 | 239 | 1.0 | 4.0 | 0.00 | 0.00 | 0.00 | 96 | 1014.5 |
| 20260510145502 | 51 | 253 | 1.0 | 4.0 | 0.00 | 0.00 | 0.00 | 96 | 1014.5 |
| 20260510145002 | 51 | 255 | 1.0 | 4.0 | 0.00 | 0.00 | 0.00 | 96 | 1014.5 |
| 20260510144502 | 51 | 250 | 2.0 | 6.0 | 0.00 | 0.00 | 0.00 | 96 | 1014.5 |
| 20260510144002 | 51 | 248 | 2.0 | 6.0 | 0.00 | 0.00 | 0.00 | 96 | 1014.5 |
| 20260510143502 | 51 | 244 | 1.0 | 5.0 | 0.00 | 0.00 | 0.00 | 96 | 1014.5 |
| 20260510143023 | 51 | 242 | 1.0 | 4.0 | 0.00 | 0.00 | 0.00 | 96 | 1014.5 |
| 20260510142502 | 51 | 236 | 1.0 | 7.0 | 0.00 | 0.00 | 0.00 | 96 | 1014.5 |
| 20260510142023 | 50 | 231 | 1.0 | 7.0 | 0.00 | 0.00 | 0.00 | 96 | 1014.5 |
| 20260510141502 | 50 | 232 | 1.0 | 6.0 | 0.00 | 0.00 | 0.00 | 96 | 1014.5 |
| 20260510141003 | 50 | 237 | 1.0 | 6.0 | 0.00 | 0.00 | 0.00 | 96 | 1014.5 |
| 20260510140502 | 50 | 246 | 1.0 | 4.0 | 0.00 | 0.00 | 0.00 | 96 | 1014.5 |
| 20260510140002 | 50 | 242 | 1.0 | 4.0 | 0.00 | 0.00 | 0.00 | 95 | 1014.5 |
| 20260510135502 | 50 | 226 | 0.0 | 3.0 | 0.00 | 0.00 | 0.00 | 96 | 1014.5 |
| 20260510135002 | 51 | 242 | 1.0 | 4.0 | 0.00 | 0.00 | 0.00 | 96 | 1014.5 |
| 20260510134502 | 50 | 245 | 0.0 | 4.0 | 0.00 | 0.00 | 0.00 | 96 | 1014.5 |
| 20260510134003 | 50 | 248 | 1.0 | 4.0 | 0.00 | 0.00 | 0.00 | 96 | 1014.5 |
| 20260510133523 | 50 | 250 | 1.0 | 4.0 | 0.00 | 0.00 | 0.00 | 95 | 1014.5 |
| 20260510133003 | 50 | 244 | 1.0 | 5.0 | 0.00 | 0.00 | 0.00 | 96 | 1014.5 |
| 20260510132523 | 50 | 237 | 1.0 | 5.0 | 0.00 | 0.00 | 0.00 | 95 | 1014.5 |
| 20260510132003 | 51 | 256 | 0.0 | 5.0 | 0.00 | 0.00 | 0.00 | 95 | 1014.5 |
| 20260510131504 | 50 | 243 | 1.0 | 5.0 | 0.00 | 0.00 | 0.00 | 95 | 1014.5 |
| 20260510131002 | 50 | 229 | 1.0 | 5.0 | 0.00 | 0.00 | 0.00 | 95 | 1014.5 |
| 20260510130502 | 50 | 237 | 1.0 | 3.0 | 0.00 | 0.00 | 0.00 | 95 | 1014.5 |
| 20260510130002 | 50 | 242 | 1.0 | 5.0 | 0.00 | 0.00 | 0.00 | 95 | 1014.5 |
| 20260510125502 | 50 | 235 | 1.0 | 5.0 | 0.00 | 0.00 | 0.00 | 95 | 1014.5 |
| 20260510125002 | 50 | 233 | 1.0 | 5.0 | 0.00 | 0.00 | 0.00 | 95 | 1014.5 |
| 20260510124503 | 50 | 233 | 2.0 | 6.0 | 0.00 | 0.00 | 0.00 | 95 | 1014.5 |
| 20260510124003 | 50 | 239 | 2.0 | 6.0 | 0.00 | 0.00 | 0.00 | 95 | 1014.5 |
| 20260510123502 | 50 | 242 | 2.0 | 6.0 | 0.00 | 0.00 | 0.00 | 95 | 1014.5 |
| 20260510123002 | 50 | 233 | 1.0 | 4.0 | 0.00 | 0.00 | 0.00 | 95 | 1014.5 |
| 20260510122502 | 51 | 239 | 1.0 | 4.0 | 0.00 | 0.00 | 0.00 | 95 | 1014.5 |
| 20260510122002 | 51 | 259 | 0.0 | 4.0 | 0.00 | 0.00 | 0.00 | 95 | 1014.5 |
| 20260510121502 | 51 | 250 | 1.0 | 6.0 | 0.00 | 0.00 | 0.00 | 95 | 1014.5 |
| 20260510121023 | 51 | 246 | 1.0 | 6.0 | 0.00 | 0.00 | 0.00 | 95 | 1014.5 |
| 20260510120502 | 51 | 240 | 0.0 | 4.0 | 0.00 | 0.00 | 0.00 | 95 | 1014.5 |
| 20260510120002 | 50 | 238 | 1.0 | 5.0 | 0.00 | 0.00 | 0.00 | 95 | 1014.5 |
| 20260510115523 | 50 | 235 | 1.0 | 5.0 | 0.00 | 0.00 | 0.00 | 95 | 1014.5 |
| 20260510115023 | 50 | 239 | 1.0 | 4.0 | 0.00 | 0.00 | 0.00 | 95 | 1014.5 |
| 20260510114523 | 50 | 240 | 1.0 | 8.0 | 0.00 | 0.00 | 0.00 | 95 | 1014.5 |
| 20260510114002 | 50 | 242 | 1.0 | 8.0 | 0.00 | 0.00 | 0.00 | 95 | 1014.5 |
| 20260510113524 | 50 | 240 | 1.0 | 5.0 | 0.00 | 0.00 | 0.00 | 95 | 1014.5 |
| 20260510113002 | 50 | 227 | 2.0 | 6.0 | 0.00 | 0.00 | 0.00 | 95 | 1014.5 |
| 20260510112503 | 50 | 229 | 1.0 | 6.0 | 0.00 | 0.00 | 0.00 | 95 | 1014.5 |
| 20260510112003 | 50 | 240 | 1.0 | 4.0 | 0.00 | 0.00 | 0.00 | 95 | 1014.5 |
| 20260510111502 | 50 | 244 | 1.0 | 4.0 | 0.00 | 0.00 | 0.00 | 95 | 1014.5 |
| 20260510111023 | 50 | 247 | 2.0 | 8.0 | 0.00 | 0.00 | 0.00 | 95 | 1014.5 |
| 20260510110502 | 50 | 242 | 1.0 | 8.0 | 0.00 | 0.00 | 0.00 | 95 | 1014.5 |
| 20260510110024 | 50 | 240 | 1.0 | 6.0 | 0.00 | 0.00 | 0.00 | 95 | 1015.2 |
| 20260510105502 | 50 | 241 | 1.0 | 7.0 | 0.00 | 0.00 | 0.00 | 95 | 1015.2 |
| 20260510105002 | 50 | 246 | 2.0 | 7.0 | 0.00 | 0.00 | 0.00 | 95 | 1015.2 |
| 20260510104502 | 50 | 250 | 2.0 | 7.0 | 0.00 | 0.00 | 0.00 | 95 | 1015.2 |
| 20260510104002 | 50 | 249 | 1.0 | 7.0 | 0.00 | 0.00 | 0.00 | 95 | 1015.2 |
| 20260510103502 | 51 | 247 | 1.0 | 5.0 | 0.00 | 0.00 | 0.00 | 95 | 1015.2 |
| 20260510103002 | 51 | 242 | 1.0 | 3.0 | 0.00 | 0.00 | 0.00 | 95 | 1015.2 |
| 20260510102502 | 51 | 241 | 1.0 | 4.0 | 0.00 | 0.00 | 0.00 | 95 | 1015.2 |
| 20260510102023 | 51 | 240 | 1.0 | 4.0 | 0.00 | 0.00 | 0.00 | 95 | 1015.2 |
| 20260510101502 | 51 | 232 | 1.0 | 5.0 | 0.00 | 0.00 | 0.00 | 95 | 1015.2 |
| 20260510101002 | 51 | 236 | 1.0 | 5.0 | 0.00 | 0.00 | 0.00 | 94 | 1015.2 |
| 20260510100502 | 51 | 251 | 1.0 | 5.0 | 0.00 | 0.00 | 0.00 | 95 | 1015.2 |
| 20260510100003 | 51 | 245 | 1.0 | 5.0 | 0.00 | 0.00 | 0.00 | 94 | 1015.2 |
| 20260510095502 | 51 | 233 | 1.0 | 5.0 | 0.00 | 0.00 | 0.00 | 94 | 1015.2 |
| 20260510095002 | 51 | 236 | 1.0 | 3.0 | 0.00 | 0.00 | 0.00 | 94 | 1015.2 |
| 20260510094503 | 51 | 232 | 1.0 | 8.0 | 0.00 | 0.00 | 0.00 | 94 | 1015.2 |
| 20260510094003 | 51 | 237 | 1.0 | 8.0 | 0.00 | 0.00 | 0.00 | 94 | 1015.2 |
| 20260510093503 | 51 | 251 | 1.0 | 4.0 | 0.00 | 0.00 | 0.00 | 94 | 1015.2 |
| 20260510093002 | 51 | 238 | 1.0 | 5.0 | 0.00 | 0.00 | 0.00 | 94 | 1015.2 |
| 20260510092502 | 51 | 242 | 1.0 | 5.0 | 0.00 | 0.00 | 0.00 | 94 | 1015.2 |
| 20260510092002 | 51 | 251 | 1.0 | 5.0 | 0.00 | 0.00 | 0.00 | 94 | 1015.2 |
| 20260510091503 | 51 | 244 | 1.0 | 3.0 | 0.00 | 0.00 | 0.00 | 94 | 1015.2 |
| 20260510091002 | 51 | 231 | 1.0 | 6.0 | 0.00 | 0.00 | 0.00 | 94 | 1015.2 |
| 20260510090503 | 51 | 238 | 1.0 | 6.0 | 0.00 | 0.00 | 0.00 | 94 | 1015.2 |
| 20260510090002 | 51 | 246 | 1.0 | 8.0 | 0.00 | 0.00 | 0.00 | 94 | 1015.2 |
| 20260510085523 | 51 | 239 | 1.0 | 8.0 | 0.00 | 0.00 | 0.00 | 94 | 1015.2 |
| 20260510085002 | 51 | 237 | 1.0 | 9.0 | 0.00 | 0.00 | 0.00 | 94 | 1015.2 |
| 20260510084502 | 51 | 251 | 1.0 | 9.0 | 0.00 | 0.00 | 0.00 | 94 | 1015.2 |
| 20260510084003 | 51 | 255 | 1.0 | 5.0 | 0.00 | 0.00 | 0.00 | 93 | 1015.2 |
| 20260510083502 | 51 | 243 | 1.0 | 4.0 | 0.00 | 0.00 | 0.00 | 93 | 1015.2 |
| 20260510083023 | 51 | 235 | 1.0 | 3.0 | 0.00 | 0.00 | 0.00 | 93 | 1015.2 |
| 20260510082524 | 51 | 230 | 1.0 | 5.0 | 0.00 | 0.00 | 0.00 | 93 | 1015.2 |
| 20260510082003 | 51 | 236 | 1.0 | 6.0 | 0.00 | 0.00 | 0.00 | 93 | 1015.2 |
| 20260510081502 | 51 | 250 | 1.0 | 9.0 | 0.00 | 0.00 | 0.00 | 93 | 1015.2 |
| 20260510081002 | 51 | 245 | 1.0 | 9.0 | 0.00 | 0.00 | 0.00 | 93 | 1015.2 |
| 20260510080502 | 52 | 242 | 1.0 | 3.0 | 0.00 | 0.00 | 0.00 | 93 | 1015.2 |
| 20260510080002 | 52 | 239 | 1.0 | 5.0 | 0.00 | 0.00 | 0.00 | 93 | 1015.2 |
| 20260510075502 | 52 | 232 | 1.0 | 5.0 | 0.00 | 0.00 | 0.00 | 93 | 1015.2 |
| 20260510075002 | 52 | 246 | 0.0 | 4.0 | 0.00 | 0.00 | 0.00 | 93 | 1015.2 |
| 20260510074502 | 52 | 237 | 1.0 | 5.0 | 0.00 | 0.00 | 0.00 | 93 | 1015.2 |
| 20260510074024 | 52 | 231 | 1.0 | 6.0 | 0.00 | 0.00 | 0.00 | 93 | 1015.2 |
| 20260510073503 | 52 | 229 | 1.0 | 6.0 | 0.00 | 0.00 | 0.00 | 92 | 1015.2 |
| 20260510073002 | 52 | 235 | 0.0 | 4.0 | 0.00 | 0.00 | 0.00 | 93 | 1015.2 |
| 20260510072524 | 52 | 231 | 1.0 | 6.0 | 0.00 | 0.00 | 0.00 | 92 | 1015.2 |
| 20260510072002 | 52 | 230 | 1.0 | 6.0 | 0.00 | 0.00 | 0.00 | 92 | 1015.2 |
| 20260510071502 | 52 | 243 | 0.0 | 2.0 | 0.00 | 0.00 | 0.00 | 92 | 1015.2 |
| 20260510071002 | 52 | 251 | 0.0 | 2.0 | 0.00 | 0.00 | 0.00 | 92 | 1015.2 |
| 20260510070503 | 52 | 260 | 0.0 | 3.0 | 0.00 | 0.00 | 0.00 | 92 | 1015.2 |
| 20260510070008 | 52 | 244 | 0.0 | 3.0 | 0.00 | 0.00 | 0.00 | 92 | 1015.2 |
| 20260510065503 | 52 | 233 | 0.0 | 3.0 | 0.00 | 0.00 | 0.00 | 92 | 1015.2 |
| 20260510065003 | 52 | 231 | 1.0 | 4.0 | 0.00 | 0.00 | 0.00 | 92 | 1015.2 |
| 20260510064503 | 52 | 235 | 1.0 | 4.0 | 0.00 | 0.00 | 0.00 | 92 | 1015.2 |
| 20260510064003 | 52 | 230 | 1.0 | 5.0 | 0.00 | 0.00 | 0.00 | 92 | 1015.2 |
| 20260510063003 | 52 | 239 | 1.0 | 7.0 | 0.00 | 0.00 | 0.00 | 91 | 1015.2 |
| 20260510062503 | 52 | 246 | 1.0 | 7.0 | 0.00 | 0.00 | 0.00 | 91 | 1015.2 |
| 20260510062002 | 52 | 245 | 1.0 | 3.0 | 0.00 | 0.00 | 0.00 | 92 | 1015.2 |
| 20260510061503 | 52 | 231 | 1.0 | 3.0 | 0.00 | 0.00 | 0.00 | 91 | 1015.2 |
| 20260510061003 | 52 | 226 | 1.0 | 5.0 | 0.00 | 0.00 | 0.00 | 91 | 1015.2 |
| 20260510060502 | 52 | 224 | 1.0 | 5.0 | 0.00 | 0.00 | 0.00 | 91 | 1015.2 |
| 20260510060002 | 52 | 218 | 1.0 | 5.0 | 0.00 | 0.00 | 0.00 | 91 | 1015.2 |
| 20260510055502 | 52 | 215 | 1.0 | 5.0 | 0.00 | 0.00 | 0.00 | 91 | 1015.2 |
| 20260510055002 | 52 | 221 | 1.0 | 4.0 | 0.00 | 0.00 | 0.00 | 91 | 1015.2 |
| 20260510054503 | 53 | 231 | 1.0 | 4.0 | 0.00 | 0.00 | 0.00 | 91 | 1015.2 |
| 20260510054002 | 53 | 226 | 1.0 | 6.0 | 0.00 | 0.00 | 0.00 | 91 | 1015.2 |
| 20260510053503 | 53 | 228 | 1.0 | 6.0 | 0.00 | 0.00 | 0.00 | 91 | 1015.2 |
| 20260510053003 | 53 | 234 | 1.0 | 4.0 | 0.00 | 0.00 | 0.00 | 90 | 1015.2 |
| 20260510052524 | 53 | 229 | 1.0 | 6.0 | 0.00 | 0.00 | 0.00 | 90 | 1015.2 |
| 20260510052002 | 53 | 229 | 1.0 | 6.0 | 0.00 | 0.00 | 0.00 | 90 | 1015.2 |
| 20260510051503 | 53 | 236 | 1.0 | 4.0 | 0.00 | 0.00 | 0.00 | 90 | 1015.2 |
| 20260510051003 | 53 | 237 | 0.0 | 3.0 | 0.00 | 0.00 | 0.00 | 90 | 1015.2 |
| 20260510050503 | 53 | 241 | 1.0 | 4.0 | 0.00 | 0.00 | 0.00 | 90 | 1015.2 |
| 20260510050003 | 53 | 243 | 1.0 | 4.0 | 0.00 | 0.00 | 0.00 | 90 | 1015.2 |
| 20260510045503 | 54 | 233 | 1.0 | 5.0 | 0.00 | 0.00 | 0.00 | 90 | 1015.2 |
| 20260510045023 | 54 | 223 | 0.0 | 5.0 | 0.00 | 0.00 | 0.00 | 90 | 1015.2 |
| 20260510044502 | 54 | 230 | 0.0 | 4.0 | 0.00 | 0.00 | 0.00 | 90 | 1015.2 |
| 20260510044002 | 54 | 228 | 0.0 | 4.0 | 0.00 | 0.00 | 0.00 | 90 | 1015.2 |
| 20260510043502 | 54 | 223 | 0.0 | 3.0 | 0.00 | 0.00 | 0.00 | 89 | 1015.2 |
| 20260510043003 | 54 | 226 | 0.0 | 3.0 | 0.00 | 0.00 | 0.00 | 90 | 1015.2 |
| 20260510042503 | 54 | 245 | 0.0 | 4.0 | 0.00 | 0.00 | 0.00 | 89 | 1015.2 |
| 20260510042003 | 54 | 243 | 0.0 | 4.0 | 0.00 | 0.00 | 0.00 | 89 | 1015.2 |
| 20260510041503 | 54 | 224 | 0.0 | 4.0 | 0.00 | 0.00 | 0.00 | 89 | 1015.2 |
| 20260510041024 | 54 | 215 | 1.0 | 4.0 | 0.00 | 0.00 | 0.00 | 89 | 1015.2 |
| 20260510040503 | 54 | 230 | 1.0 | 4.0 | 0.00 | 0.00 | 0.00 | 88 | 1015.2 |
| 20260510040003 | 54 | 235 | 1.0 | 5.0 | 0.00 | 0.00 | 0.00 | 88 | 1015.2 |
| 20260510035503 | 55 | 235 | 1.0 | 5.0 | 0.00 | 0.00 | 0.00 | 88 | 1015.2 |
| 20260510035003 | 55 | 246 | 1.0 | 5.0 | 0.00 | 0.00 | 0.00 | 88 | 1015.2 |
| 20260510034503 | 55 | 245 | 1.0 | 5.0 | 0.00 | 0.00 | 0.00 | 88 | 1015.2 |
| 20260510034003 | 55 | 239 | 0.0 | 3.0 | 0.00 | 0.00 | 0.00 | 88 | 1015.2 |
| 20260510033503 | 56 | 225 | 0.0 | 2.0 | 0.00 | 0.00 | 0.00 | 88 | 1015.2 |
| 20260510033024 | 56 | 221 | 0.0 | 1.0 | 0.00 | 0.00 | 0.00 | 88 | 1015.2 |
| 20260510032502 | 56 | 228 | 0.0 | 4.0 | 0.00 | 0.00 | 0.00 | 87 | 1015.2 |
| 20260510032002 | 56 | 231 | 1.0 | 4.0 | 0.00 | 0.00 | 0.00 | 87 | 1015.2 |
| 20260510031503 | 56 | 235 | 1.0 | 4.0 | 0.00 | 0.00 | 0.00 | 87 | 1015.2 |
| 20260510031002 | 56 | 221 | 1.0 | 4.0 | 0.00 | 0.00 | 0.00 | 87 | 1015.2 |
| 20260510030524 | 56 | 218 | 1.0 | 4.0 | 0.00 | 0.00 | 0.00 | 87 | 1015.2 |
| 20260510030003 | 56 | 241 | 1.0 | 3.0 | 0.00 | 0.00 | 0.00 | 87 | 1015.2 |
| 20260510025524 | 56 | 248 | 1.0 | 3.0 | 0.00 | 0.00 | 0.00 | 86 | 1015.2 |
| 20260510025003 | 56 | 265 | 0.0 | 3.0 | 0.00 | 0.00 | 0.00 | 86 | 1015.2 |
| 20260510024503 | 56 | 286 | 1.0 | 3.0 | 0.00 | 0.00 | 0.00 | 85 | 1015.2 |
| 20260510024003 | 57 | 249 | 1.0 | 4.0 | 0.00 | 0.00 | 0.00 | 85 | 1015.2 |
| 20260510023503 | 57 | 224 | 1.0 | 4.0 | 0.00 | 0.00 | 0.00 | 85 | 1015.2 |
| 20260510023002 | 57 | 215 | 1.0 | 5.0 | 0.00 | 0.00 | 0.00 | 85 | 1015.2 |
| 20260510022503 | 58 | 219 | 1.0 | 5.0 | 0.00 | 0.00 | 0.00 | 84 | 1015.2 |
| 20260510022003 | 58 | 222 | 0.0 | 5.0 | 0.00 | 0.00 | 0.00 | 84 | 1015.2 |
| 20260510021502 | 58 | 226 | 1.0 | 5.0 | 0.00 | 0.00 | 0.00 | 83 | 1015.2 |
| 20260510021002 | 58 | 237 | 1.0 | 4.0 | 0.00 | 0.00 | 0.00 | 83 | 1015.2 |
| 20260510020503 | 59 | 226 | 1.0 | 4.0 | 0.00 | 0.00 | 0.00 | 82 | 1015.2 |
| 20260510020003 | 59 | 215 | 1.0 | 4.0 | 0.00 | 0.00 | 0.00 | 82 | 1015.2 |
| 20260510015503 | 59 | 222 | 1.0 | 4.0 | 0.00 | 0.00 | 0.00 | 81 | 1015.2 |
| 20260510015002 | 60 | 242 | 1.0 | 3.0 | 0.00 | 0.00 | 0.00 | 81 | 1015.2 |
| 20260510014503 | 60 | 232 | 1.0 | 4.0 | 0.00 | 0.00 | 0.00 | 81 | 1015.2 |
| 20260510014003 | 60 | 222 | 1.0 | 7.0 | 0.00 | 0.00 | 0.00 | 80 | 1015.2 |
| 20260510013503 | 60 | 219 | 1.0 | 8.0 | 0.00 | 0.00 | 0.00 | 80 | 1015.2 |
| 20260510013003 | 61 | 222 | 1.0 | 8.0 | 0.00 | 0.00 | 0.00 | 79 | 1015.2 |
| 20260510012502 | 61 | 219 | 1.0 | 4.0 | 0.00 | 0.00 | 0.00 | 79 | 1015.2 |
| 20260510012003 | 62 | 257 | 1.0 | 5.0 | 0.00 | 0.00 | 0.00 | 78 | 1015.2 |
| 20260510011503 | 62 | 262 | 1.0 | 5.0 | 0.00 | 0.00 | 0.00 | 77 | 1015.2 |
| 20260510011002 | 62 | 222 | 1.0 | 5.0 | 0.00 | 0.00 | 0.00 | 77 | 1015.2 |
| 20260510010502 | 63 | 225 | 2.0 | 5.0 | 0.00 | 0.00 | 0.00 | 76 | 1015.2 |
| 20260510010024 | 63 | 264 | 1.0 | 4.0 | 0.00 | 0.00 | 0.00 | 76 | 1015.2 |
| 20260510005503 | 64 | 276 | 1.0 | 5.0 | 0.00 | 0.00 | 0.00 | 75 | 1015.2 |
| 20260510005003 | 64 | 251 | 1.0 | 5.0 | 0.00 | 0.00 | 0.00 | 74 | 1015.2 |
| 20260510004524 | 64 | 285 | 1.0 | 6.0 | 0.00 | 0.00 | 0.00 | 74 | 1015.2 |
| 20260510004002 | 65 | 326 | 1.0 | 6.0 | 0.00 | 0.00 | 0.00 | 74 | 1015.2 |
| 20260510003502 | 65 | 312 | 1.0 | 5.0 | 0.00 | 0.00 | 0.00 | 74 | 1015.2 |
| 20260510003003 | 65 | 287 | 1.0 | 5.0 | 0.00 | 0.00 | 0.00 | 74 | 1015.2 |
| 20260510002524 | 65 | 343 | 1.0 | 5.0 | 0.00 | 0.00 | 0.00 | 73 | 1015.2 |
| 20260510002002 | 65 | 360 | 1.0 | 5.0 | 0.00 | 0.00 | 0.00 | 73 | 1015.2 |
| 20260510001503 | 66 | 335 | 1.0 | 5.0 | 0.00 | 0.00 | 0.00 | 73 | 1015.2 |
| 20260510001003 | 66 | 305 | 1.0 | 5.0 | 0.00 | 0.00 | 0.00 | 73 | 1015.2 |
| 20260510000503 | 66 | 293 | 1.0 | 5.0 | 0.00 | 0.00 | 0.00 | 73 | 1015.2 |
| 20260510000003 | 66 | 308 | 2.0 | 6.0 | 0.00 | 0.00 | 0.00 | 72 | 1015.2 |
| 20260509235503 | 66 | 308 | 1.0 | 7.0 | 0.00 | 0.00 | 0.00 | 72 | 1015.2 |
| 20260509235003 | 66 | 341 | 2.0 | 9.0 | 0.00 | 0.00 | 0.00 | 72 | 1015.2 |
| 20260509234503 | 66 | 279 | 2.0 | 9.0 | 0.00 | 0.00 | 0.00 | 72 | 1015.2 |
| 20260509234024 | 66 | 251 | 2.0 | 11.0 | 0.00 | 0.00 | 0.00 | 71 | 1015.2 |
| 20260509233524 | 67 | 306 | 2.0 | 11.0 | 0.00 | 0.00 | 0.00 | 71 | 1015.2 |
| 20260509233003 | 67 | 314 | 2.0 | 7.0 | 0.00 | 0.00 | 0.00 | 71 | 1015.2 |
| 20260509232503 | 67 | 329 | 1.0 | 7.0 | 0.00 | 0.00 | 0.00 | 71 | 1015.2 |
| 20260509232002 | 67 | 336 | 2.0 | 7.0 | 0.00 | 0.00 | 0.00 | 71 | 1015.2 |
| 20260509231503 | 67 | 337 | 2.0 | 8.0 | 0.00 | 0.00 | 0.00 | 71 | 1015.2 |
| 20260509231024 | 67 | 324 | 2.0 | 8.0 | 0.00 | 0.00 | 0.00 | 71 | 1015.2 |
| 20260509230503 | 67 | 295 | 2.0 | 5.0 | 0.00 | 0.00 | 0.00 | 71 | 1015.2 |
| 20260509230003 | 68 | 332 | 2.0 | 6.0 | 0.00 | 0.00 | 0.00 | 69 | 1015.2 |
| 20260509225503 | 68 | 343 | 1.0 | 8.0 | 0.00 | 0.00 | 0.00 | 69 | 1015.2 |
| 20260509225002 | 68 | 326 | 1.0 | 8.0 | 0.00 | 0.00 | 0.00 | 70 | 1015.2 |
| 20260509224502 | 68 | 296 | 2.0 | 8.0 | 0.00 | 0.00 | 0.00 | 70 | 1015.2 |
| 20260509224024 | 68 | 297 | 2.0 | 5.0 | 0.00 | 0.00 | 0.00 | 70 | 1015.2 |
| 20260509223503 | 68 | 341 | 2.0 | 8.0 | 0.00 | 0.00 | 0.00 | 69 | 1015.2 |
| 20260509223003 | 68 | 326 | 2.0 | 8.0 | 0.00 | 0.00 | 0.00 | 68 | 1015.2 |
| 20260509222524 | 68 | 299 | 2.0 | 5.0 | 0.00 | 0.00 | 0.00 | 68 | 1015.2 |
| 20260509222003 | 69 | 327 | 2.0 | 5.0 | 0.00 | 0.00 | 0.00 | 69 | 1015.2 |
| 20260509221503 | 69 | 327 | 1.0 | 5.0 | 0.00 | 0.00 | 0.00 | 68 | 1015.2 |
| 20260509221003 | 69 | 272 | 1.0 | 5.0 | 0.00 | 0.00 | 0.00 | 68 | 1015.2 |
| 20260509220503 | 69 | 334 | 1.0 | 5.0 | 0.00 | 0.00 | 0.00 | 66 | 1015.2 |
| 20260509220003 | 70 | 335 | 1.0 | 5.0 | 0.00 | 0.00 | 0.00 | 67 | 1015.2 |
| 20260509215524 | 70 | 251 | 1.0 | 6.0 | 0.00 | 0.00 | 0.00 | 67 | 1015.2 |
| 20260509215003 | 70 | 271 | 1.0 | 6.0 | 0.00 | 0.00 | 0.00 | 67 | 1015.2 |
| 20260509214503 | 70 | 275 | 1.0 | 4.0 | 0.00 | 0.00 | 0.00 | 67 | 1015.2 |
| 20260509214003 | 70 | 274 | 1.0 | 4.0 | 0.00 | 0.00 | 0.00 | 65 | 1015.2 |
| 20260509213503 | 70 | 273 | 1.0 | 9.0 | 0.00 | 0.00 | 0.00 | 66 | 1015.2 |